RYR7WL EGHH-LEPA

Flight info

Callsign RYR7WL
Flight time N/A
Altitude 35000
Route SAM Y8 GWC UN859 SOPIL DCT BALAN DCT EVPOK DCT NARAK DCT GAI DCT LOMRA DCT ROCAN DCT IBRAP N13 LORES
Aircraft B738/M-SDE3FGILRWY/SB1

Departure

Time 2026-05-08 09:02
Airport Bournemouth Airport (EGHH)

Arrival

Time N/A
Airport Palma de Mallorca Airport (LEPA)
Time Latitude Longitude Altitude Speed Heading
2026-05-08 08:43 50.77664 -1.83566 41 ft 0 kts 266°
2026-05-08 08:56 50.77666 -1.83532 42 ft 4 kts 256°
2026-05-08 08:56 50.77675 -1.83496 42 ft 4 kts 228°
2026-05-08 08:56 50.77693 -1.83477 42 ft 2 kts 182°
2026-05-08 08:56 50.77695 -1.83477 42 ft 1 kts 182°
2026-05-08 08:59 50.77691 -1.83477 42 ft 5 kts 182°
2026-05-08 08:59 50.77622 -1.83488 42 ft 11 kts 198°
2026-05-08 08:59 50.77573 -1.83568 42 ft 10 kts 257°
2026-05-08 09:00 50.77601 -1.83681 41 ft 13 kts 303°
2026-05-08 09:00 50.77663 -1.83813 42 ft 17 kts 307°
2026-05-08 09:00 50.77727 -1.83985 42 ft 18 kts 299°
2026-05-08 09:00 50.77790 -1.84154 43 ft 18 kts 302°
2026-05-08 09:01 50.77849 -1.84310 43 ft 16 kts 300°
2026-05-08 09:01 50.77903 -1.84457 43 ft 15 kts 300°
2026-05-08 09:01 50.77963 -1.84532 44 ft 8 kts 42°
2026-05-08 09:01 50.77970 -1.84504 43 ft 1 kts 74°
2026-05-08 09:02 50.78015 -1.84239 41 ft 70 kts 76°
2026-05-08 09:02 50.78204 -1.83012 108 ft 150 kts 81°
2026-05-08 09:02 50.78539 -1.81249 747 ft 184 kts 72°
2026-05-08 09:02 50.79136 -1.79363 1824 ft 198 kts 63°
2026-05-08 09:03 50.79856 -1.77477 2986 ft 203 kts 62°
2026-05-08 09:03 50.80593 -1.75563 4101 ft 204 kts 62°
2026-05-08 09:03 50.81325 -1.73641 5215 ft 204 kts 62°
2026-05-08 09:03 50.82085 -1.71614 5755 ft 227 kts 62°
2026-05-08 09:04 50.82896 -1.69427 6210 ft 237 kts 62°
2026-05-08 09:04 50.83737 -1.67148 6808 ft 242 kts 62°
2026-05-08 09:04 50.84588 -1.64828 7420 ft 245 kts 62°
2026-05-08 09:04 50.85449 -1.62466 8009 ft 250 kts 62°
2026-05-08 09:05 50.86321 -1.60065 8650 ft 256 kts 62°
2026-05-08 09:05 50.87252 -1.57484 8904 ft 283 kts 63°
2026-05-08 09:05 50.88253 -1.54708 9582 ft 294 kts 62°
2026-05-08 09:05 50.89272 -1.51880 10446 ft 299 kts 62°
2026-05-08 09:06 50.90341 -1.48905 10782 ft 324 kts 62°
2026-05-08 09:06 50.91475 -1.45745 11160 ft 342 kts 62°
2026-05-08 09:06 50.92662 -1.42439 11931 ft 348 kts 62°
2026-05-08 09:06 50.93863 -1.39082 12768 ft 353 kts 62°
2026-05-08 09:07 50.94825 -1.35497 13560 ft 356 kts 79°
2026-05-08 09:07 50.94997 -1.31608 14341 ft 354 kts 98°
2026-05-08 09:07 50.94485 -1.27798 15111 ft 354 kts 107°
2026-05-08 09:07 50.93828 -1.24011 15820 ft 359 kts 108°
2026-05-08 09:08 50.93149 -1.20183 16536 ft 363 kts 107°
2026-05-08 09:08 50.92468 -1.16318 17273 ft 366 kts 108°
2026-05-08 09:08 50.91798 -1.12458 17987 ft 370 kts 107°
2026-05-08 09:08 50.91119 -1.08510 18659 ft 373 kts 107°
2026-05-08 09:09 50.90438 -1.04523 19295 ft 377 kts 107°
2026-05-08 09:09 50.89751 -1.00494 19924 ft 380 kts 107°
2026-05-08 09:09 50.89060 -0.96436 20531 ft 384 kts 106°
2026-05-08 09:09 50.88361 -0.92342 21141 ft 387 kts 107°
2026-05-08 09:10 50.87654 -0.88206 21749 ft 390 kts 107°
2026-05-08 09:10 50.86938 -0.84043 22346 ft 394 kts 107°
2026-05-08 09:10 50.86172 -0.79868 22956 ft 396 kts 112°
2026-05-08 09:10 50.84856 -0.76054 23490 ft 397 kts 129°
2026-05-08 09:11 50.82963 -0.72980 23991 ft 397 kts 143°
2026-05-08 09:11 50.80661 -0.70535 24409 ft 401 kts 148°
2026-05-08 09:11 50.78289 -0.68169 24797 ft 406 kts 149°
2026-05-08 09:11 50.75884 -0.65789 25197 ft 410 kts 149°
2026-05-08 09:12 50.73455 -0.63377 25585 ft 415 kts 149°
2026-05-08 09:12 50.71003 -0.60927 25961 ft 420 kts 149°
2026-05-08 09:12 50.68529 -0.58441 26376 ft 423 kts 148°
2026-05-08 09:12 50.66039 -0.55929 26802 ft 427 kts 148°
2026-05-08 09:13 50.63557 -0.53422 27157 ft 432 kts 148°
2026-05-08 09:13 50.61019 -0.50858 27516 ft 436 kts 148°
2026-05-08 09:13 50.58454 -0.48268 27876 ft 440 kts 148°
2026-05-08 09:13 50.55867 -0.45660 28239 ft 444 kts 148°
2026-05-08 09:14 50.53257 -0.43033 28579 ft 448 kts 148°
2026-05-08 09:14 50.50622 -0.40384 28906 ft 452 kts 148°
2026-05-08 09:14 50.47967 -0.37719 29244 ft 455 kts 148°
2026-05-08 09:14 50.45285 -0.35032 29570 ft 459 kts 148°
2026-05-08 09:15 50.42621 -0.32365 29902 ft 462 kts 148°
2026-05-08 09:15 50.39895 -0.29640 30072 ft 469 kts 148°
2026-05-08 09:15 50.37124 -0.26875 30243 ft 475 kts 148°
2026-05-08 09:15 50.34335 -0.24095 30576 ft 475 kts 148°
2026-05-08 09:16 50.31539 -0.21313 30922 ft 476 kts 148°
2026-05-08 09:16 50.28740 -0.18531 31197 ft 478 kts 148°
2026-05-08 09:16 50.25922 -0.15733 31438 ft 481 kts 148°
2026-05-08 09:16 50.23090 -0.12926 31749 ft 482 kts 148°
2026-05-08 09:17 50.20261 -0.10125 32133 ft 481 kts 148°
2026-05-08 09:17 50.17471 -0.07366 32442 ft 482 kts 149°
2026-05-08 09:17 50.14624 -0.04556 32604 ft 487 kts 149°
2026-05-08 09:17 50.11747 -0.01771 32922 ft 486 kts 152°
2026-05-08 09:18 50.08739 0.00443 33840 ft 468 kts 161°
2026-05-08 09:18 50.05677 0.01915 34540 ft 456 kts 168°
2026-05-08 09:18 50.02609 0.03085 35009 ft 451 kts 169°
2026-05-08 09:18 49.99538 0.04221 35063 ft 458 kts 169°
2026-05-08 09:19 49.93308 0.06561 35075 ft 470 kts 169°
2026-05-08 09:19 49.86935 0.09034 35069 ft 471 kts 169°
2026-05-08 09:20 49.80639 0.11502 35063 ft 463 kts 169°
2026-05-08 09:20 49.74394 0.13935 35069 ft 463 kts 169°
2026-05-08 09:21 49.68174 0.16347 35072 ft 464 kts 169°
2026-05-08 09:23 49.46149 0.25257 35067 ft 473 kts 169°
2026-05-08 09:23 49.39822 0.27802 35084 ft 473 kts 169°
2026-05-08 09:24 49.33444 0.30361 35072 ft 474 kts 169°
2026-05-08 09:24 49.27059 0.32959 35068 ft 475 kts 168°
2026-05-08 09:25 49.20682 0.35656 35049 ft 476 kts 168°
2026-05-08 09:25 49.14299 0.38354 35050 ft 476 kts 168°
2026-05-08 09:26 49.07944 0.41019 35021 ft 477 kts 168°
2026-05-08 09:26 49.01546 0.43688 35035 ft 477 kts 169°
2026-05-08 09:27 48.95141 0.46353 35043 ft 477 kts 168°
2026-05-08 09:27 48.88746 0.49008 35041 ft 476 kts 169°
2026-05-08 09:28 48.82410 0.51632 35034 ft 474 kts 169°
2026-05-08 09:28 48.76047 0.54230 35033 ft 473 kts 169°
2026-05-08 09:29 48.69689 0.56705 35043 ft 471 kts 169°
2026-05-08 09:29 48.63344 0.59163 35008 ft 470 kts 170°
2026-05-08 09:30 48.57008 0.61629 35026 ft 470 kts 170°
2026-05-08 09:30 48.50706 0.64086 35039 ft 471 kts 169°
2026-05-08 09:31 48.44363 0.66659 35039 ft 473 kts 169°
2026-05-08 09:31 48.38000 0.69262 35031 ft 475 kts 169°
2026-05-08 09:32 48.31611 0.71853 35030 ft 476 kts 169°
2026-05-08 09:32 48.25245 0.74421 35036 ft 478 kts 169°
2026-05-08 09:33 48.18808 0.76973 35019 ft 479 kts 169°
2026-05-08 09:33 48.12359 0.79501 35023 ft 479 kts 169°
2026-05-08 09:34 48.05905 0.82030 35022 ft 480 kts 169°
2026-05-08 09:34 47.99495 0.84540 35002 ft 479 kts 169°
2026-05-08 09:35 47.93048 0.87059 35024 ft 478 kts 169°
2026-05-08 09:35 47.86620 0.89564 35016 ft 477 kts 169°
2026-05-08 09:36 47.80215 0.92051 35027 ft 475 kts 169°
2026-05-08 09:36 47.73872 0.94504 35012 ft 473 kts 169°
2026-05-08 09:37 47.67506 0.96959 35017 ft 472 kts 169°
2026-05-08 09:37 47.61155 0.99404 35016 ft 471 kts 169°
2026-05-08 09:38 47.54811 1.01841 35008 ft 471 kts 170°
2026-05-08 09:38 47.48515 1.04253 35015 ft 471 kts 170°
2026-05-08 09:39 47.42144 1.06359 35008 ft 466 kts 179°
2026-05-08 09:39 47.35733 1.06393 34998 ft 460 kts 187°
2026-05-08 09:40 47.29327 1.06131 35010 ft 461 kts 186°
2026-05-08 09:40 47.22945 1.05946 35006 ft 462 kts 186°
2026-05-08 09:41 47.16508 1.05804 34987 ft 463 kts 186°
2026-05-08 09:41 47.10065 1.05665 35002 ft 463 kts 186°
2026-05-08 09:42 47.03616 1.05523 35005 ft 464 kts 186°
2026-05-08 09:42 46.97213 1.05308 35002 ft 463 kts 187°
2026-05-08 09:43 46.90777 1.05006 35002 ft 462 kts 187°
2026-05-08 09:43 46.84347 1.04711 35000 ft 462 kts 187°
2026-05-08 09:44 46.77921 1.04430 34999 ft 461 kts 187°
2026-05-08 09:44 46.71548 1.04156 34996 ft 461 kts 187°
2026-05-08 09:45 46.65136 1.03881 34994 ft 461 kts 187°
2026-05-08 09:45 46.58734 1.03606 34997 ft 460 kts 187°
2026-05-08 09:46 46.52335 1.03403 34982 ft 462 kts 182°
2026-05-08 09:46 46.45991 1.04963 34994 ft 468 kts 171°
2026-05-08 09:47 46.39654 1.07197 34985 ft 469 kts 171°
2026-05-08 09:47 46.33318 1.09396 34981 ft 468 kts 171°
2026-05-08 09:48 46.26975 1.11530 34987 ft 467 kts 172°
2026-05-08 09:48 46.20637 1.13633 34991 ft 467 kts 172°
2026-05-08 09:49 46.14339 1.15716 34981 ft 468 kts 172°
2026-05-08 09:49 46.07996 1.17811 34997 ft 467 kts 172°
2026-05-08 09:50 46.01653 1.19902 34994 ft 468 kts 172°
2026-05-08 09:50 45.95294 1.21995 34986 ft 469 kts 172°
2026-05-08 09:51 45.88977 1.24068 34991 ft 469 kts 172°
2026-05-08 09:51 45.82606 1.26155 34995 ft 470 kts 172°
2026-05-08 09:52 45.76235 1.28237 34984 ft 470 kts 172°
2026-05-08 09:52 45.69854 1.30317 34987 ft 470 kts 172°
2026-05-08 09:53 45.63517 1.32378 34993 ft 470 kts 172°
2026-05-08 09:53 45.57135 1.34449 34991 ft 470 kts 172°
2026-05-08 09:54 45.50765 1.36512 34977 ft 469 kts 172°
2026-05-08 09:54 45.44413 1.38564 34986 ft 467 kts 172°
2026-05-08 09:55 45.38119 1.40592 34983 ft 466 kts 172°
2026-05-08 09:55 45.31810 1.42620 34983 ft 464 kts 172°
2026-05-08 09:56 45.25523 1.44638 34990 ft 463 kts 172°
2026-05-08 09:56 45.19249 1.46646 34994 ft 462 kts 172°
2026-05-08 09:57 45.09900 1.49632 34991 ft 460 kts 172°
2026-05-08 09:57 45.03666 1.51617 34990 ft 459 kts 172°
2026-05-08 09:58 44.97439 1.53595 34973 ft 459 kts 173°
2026-05-08 09:58 44.91259 1.55554 34989 ft 458 kts 173°
2026-05-08 09:59 44.85038 1.57521 35003 ft 458 kts 173°
2026-05-08 09:59 44.78820 1.59483 34998 ft 459 kts 173°
2026-05-08 10:00 44.72581 1.61447 34979 ft 459 kts 173°
2026-05-08 10:00 44.66388 1.63394 34992 ft 459 kts 173°
2026-05-08 10:01 44.60145 1.65351 34959 ft 460 kts 173°
2026-05-08 10:01 44.53907 1.67303 34983 ft 459 kts 173°
2026-05-08 10:02 44.47684 1.69246 34995 ft 458 kts 173°
2026-05-08 10:02 44.41506 1.71170 34994 ft 458 kts 173°
2026-05-08 10:03 44.35299 1.73101 34977 ft 456 kts 173°
2026-05-08 10:03 44.29126 1.75004 34986 ft 453 kts 174°
2026-05-08 10:04 44.22951 1.76462 34978 ft 448 kts 177°
2026-05-08 10:04 44.16842 1.77727 34974 ft 446 kts 177°
2026-05-08 10:05 44.10714 1.79040 34982 ft 444 kts 177°
2026-05-08 10:05 44.04611 1.80380 34987 ft 444 kts 177°
2026-05-08 10:06 43.98516 1.81718 34978 ft 442 kts 176°
2026-05-08 10:06 43.92479 1.82859 34971 ft 438 kts 181°
2026-05-08 10:07 43.86414 1.83416 34978 ft 436 kts 182°
2026-05-08 10:07 43.80355 1.83903 34960 ft 436 kts 182°
2026-05-08 10:08 43.74300 1.84453 34971 ft 436 kts 181°
2026-05-08 10:08 43.68294 1.85031 34968 ft 436 kts 181°
2026-05-08 10:09 43.62250 1.85619 34968 ft 435 kts 181°
2026-05-08 10:09 43.56213 1.86203 34966 ft 435 kts 181°
2026-05-08 10:10 43.50184 1.86784 34969 ft 434 kts 181°
2026-05-08 10:10 43.44193 1.87360 34971 ft 434 kts 181°
2026-05-08 10:11 43.38175 1.87938 34960 ft 433 kts 181°
2026-05-08 10:11 43.32169 1.88514 34962 ft 432 kts 181°
2026-05-08 10:12 43.26177 1.89091 34968 ft 431 kts 181°
2026-05-08 10:12 43.21202 1.89569 34956 ft 431 kts 181°
2026-05-08 10:13 43.14263 1.90235 34958 ft 430 kts 181°
2026-05-08 10:13 43.08307 1.90805 34968 ft 429 kts 181°
2026-05-08 10:14 43.03362 1.91277 34951 ft 429 kts 182°
2026-05-08 10:14 42.97410 1.91844 34953 ft 429 kts 182°